Regional Weather Roundup
Issued by NWS

Home | Current Version | Previous Version | Graphics & Text | Print | Product List | Glossary Off
Versions: 1 2 3 4 5 6 7 8 9 10 11 12 13 14 15 16 17 18 19 20 21 22 23 24 25 26 27 28 29 30 31 32 33 34 35 36 37 38 39 40 41 42 43 44 45 46 47 48 49 50

000
ASUS43 KDMX 020507
RWRIA

WEATHER ROUNDUP FOR IOWA
NATIONAL WEATHER SERVICE DES MOINES IA
1200 AM CDT THU OCT 02 2014

NOTE: "FAIR" INDICATES FEW OR NO CLOUDS BELOW 12,000 FEET WITH NO
SIGNIFICANT WEATHER AND/OR OBSTRUCTIONS TO VISIBILITY.

* - THESE STATIONS ARE NOT NWS STATIONS...THUS NOT UNDER NWS
QUALITY CONTROL.  THEY ALSO DO NOT REPORT WEATHER SUCH
AS PRECIPITATION OR FOG.

IAZ001>003-012>014-020>022-031>034-043>046-020600-
   NORTHWEST IOWA

CITY           SKY/WX    TMP DP  RH WIND       PRES   REMARKS
CARROLL *      CLEAR     59  59 100 CALM      29.81R FOG
CHEROKEE *     MOCLDY    61  60  98 S3        29.81S
DENISON *      PTCLDY    63  63 100 CALM      29.80R FOG
LE MARS *      CLOUDY    59  57  94 CALM      29.82R
ORANGE CITY *  CLEAR     64  52  63 NE5       29.82S
SHELDON *      CLOUDY    55  54  94 N3        29.81S
SIOUX CITY     MOCLDY    61  59  93 CALM      29.81R
SPENCER        PTCLDY    58  56  93 E6        29.81S
STORM LAKE *   CLEAR     61  59  94 W8G15     29.82R FOG
$$

IAZ055>058-069>071-079>083-090>094-020600-
   SOUTHWEST IOWA

CITY           SKY/WX    TMP DP  RH WIND       PRES   REMARKS
ATLANTIC *     FOG       61  61 100 N3        29.79F VSB 3/4
AUDUBON *      HAZE      57  54  88 CALM      29.82S VSB 0
CLARINDA *     MOCLDY    64  64 100 CALM      29.80S FOG
COUNCIL BLFS * PTCLDY    64  64 100 CALM      29.79R FOG
CRESTON *      FOG       63  63 100 E5        29.80S VSB 0
HARLAN  *      PTCLDY    61  61 100 CALM      29.84S FOG
LAMONI         CLOUDY    65  64  97 SE3       29.79S FOG
RED OAK *      MOCLDY    63  63 100 N3        29.78F FOG
SHENANDOAH *   MOCLDY    64  64 100 NE3       29.78S FOG
$$

IAZ047>049-059>061-072>074-084-020600-
   CENTRAL IOWA

CITY           SKY/WX    TMP DP  RH WIND       PRES   REMARKS
AMES           FOG       58  58 100 CALM      29.81F VSB 1/4
ANKENY *       FOG       57  57 100 CALM      29.79F VSB 0
CHARITON *     FOG       63  63 100 CALM      29.79F VSB 1/2
DES MOINES     FOG       63  62  97 E5        29.79F VSB 1/2
GRINNELL*      MOCLDY    63  61  94 CALM      29.82F FOG
KNOXVILLE *    FOG       63  63 100 NE5       29.78F VSB 0
MARSHALLTOWN   CLOUDY    65  63  93 SE3       29.82R FOG
PELLA *        CLOUDY    64  63  97 CALM      29.81S FOG
PERRY *        FOG       59  59 100 CALM      29.80F VSB<1/4
$$

IAZ004>006-015-016-023>025-035-036-020600-
   NORTH CENTRAL IOWA

CITY           SKY/WX    TMP DP  RH WIND       PRES   REMARKS
ALGONA *       PTCLDY    61  61 100 N10       29.84R FOG
CLARION *      CLEAR     57  57 100 E3        29.82S
ESTHERVILLE    PTCLDY    58  56  93 SE7       29.82S
FORT DODGE *   CLOUDY    57  55  94 E5        29.82R VSB 1/4
MASON CITY     FOG       50  50 100 CALM      29.84S VSB 1/4
FOREST CITY *  FOG       52  52 100 CALM      29.83S VSB 0
IOWA FALLS *   FOG       59  57  94 CALM      29.84R VSB<1/4
$$

IAZ007>011-017>019-026>030-037>042-050>054-066-020600-
   NORTHEAST IOWA

CITY           SKY/WX    TMP DP  RH WIND       PRES   REMARKS
CHARLES CITY * CLOUDY    61  59  94 SE5       29.84R FOG
CLINTON *      CLOUDY    63  57  82 E5        29.87S
DECORAH *      CLOUDY    61  61 100 CALM      29.83R
MONTICELLO *   CLOUDY    64  63  94 SE5       29.84S
OELWEIN *      CLOUDY    64  61  88 S8        29.84S
WATERLOO       CLOUDY    65  61  87 S7        29.82R
$$

IAZ064-065-067-068-078-020600-
   EAST CENTRAL IOWA

CITY           SKY/WX    TMP DP  RH WIND       PRES   REMARKS
IOWA CITY      CLOUDY    65  63  93 CALM      29.84S
MT. PLEASANT * CLOUDY    63  63 100 CALM      29.83R FOG
MUSCATINE *    CLOUDY    64  63  94 CALM      29.84R
QUAD CITIES    CLOUDY    63  60  90 CALM      29.84R FOG
$$

IAZ062-063-075>077-085>089-095>099-020600-
   SOUTHEAST IOWA

CITY           SKY/WX    TMP DP  RH WIND       PRES   REMARKS
BURLINGTON     CLOUDY    65  64  97 W3        29.83R
FAIRFIELD *    CLOUDY   N/A N/A N/A E6        29.82F
FORT MADISON * CLEAR     66  64  94 CALM      29.83R FOG
KEOKUK *       CLEAR     66  64  94 CALM      29.82R
OSKALOOSA *      N/A     64  63  94 E6        29.81S FOG
CENTERVILLE *  LGT RAIN  64  64 100 NE5       29.80F
OTTUMWA        CLOUDY    63  62  97 E5        29.81S FOG
WASHINGTON *   MOCLDY    64  64 100 CALM      29.83S FOG
$$

ABBREVIATIONS USED IN REMARKS
   TC - TEMPERATURES IN CELSIUS
  WCI - WIND CHILL INDEX
   HX - HEAT INDEX
  VSB - VISIBILITY
$$




USA.gov is the U.S. government's official web portal to all federal, state and local government web resources and services.